Location: Huesca
(42.1318°N, 0.4078°W)
Time: 04:30:17
(UTC+02:00)

RS-15 - Pass Details

Date: 25 April 2024
Orbit: 1896 x 2149 km, 64.8° (Epoch: 29 May)

Event Time Altitude Azimuth Distance (km) Brightness Sun altitude
Rises 04:18:09 0° 319° (NW) 5,444 10.5 -26.1°
Reaches altitude 10° 04:22:09 10° 329° (NNW) 4,406 10.1 -25.6°
Maximum altitude 04:32:02 33° 31° (NNE) 2,866 9.5 -24.4°
Drops below altitude 10° 04:41:37 10° 93° (E) 4,284 10.3 -23.2°
Sets 04:45:24 0° 103° (ESE) 5,275 10.7 -22.7°
